GLO5520 SBFI-SBSP

Flight info

Callsign GLO5520
Flight time N/A
Altitude 35000
Route KAMIL UM548 DOSMU DCT ANISE
Aircraft B38M/M-SDE1FGHILORVWXY/HB1

Departure

Time 2026-04-20 19:51
Airport Cataratas International Airport (SBFI)

Arrival

Time N/A
Airport Congonhas–Deputado Freitas Nobre Airport (SBSP)
Time Latitude Longitude Altitude Speed Heading
2026-04-20 19:20 -25.59787 -54.48730 769 ft 0 kts 220°
2026-04-20 19:39 -25.59776 -54.48720 769 ft 3 kts 220°
2026-04-20 19:39 -25.59763 -54.48708 769 ft 3 kts 218°
2026-04-20 19:39 -25.59748 -54.48699 769 ft 3 kts 183°
2026-04-20 19:39 -25.59732 -54.48704 769 ft 3 kts 139°
2026-04-20 19:40 -25.59721 -54.48716 769 ft 1 kts 130°
2026-04-20 19:40 -25.59718 -54.48720 769 ft 0 kts 130°
2026-04-20 19:45 -25.59719 -54.48718 769 ft 1 kts 130°
2026-04-20 19:46 -25.59729 -54.48706 769 ft 3 kts 130°
2026-04-20 19:46 -25.59748 -54.48681 769 ft 5 kts 130°
2026-04-20 19:46 -25.59776 -54.48644 769 ft 7 kts 130°
2026-04-20 19:46 -25.59815 -54.48594 769 ft 10 kts 131°
2026-04-20 19:47 -25.59843 -54.48536 769 ft 0 kts 70°
2026-04-20 19:47 -25.59839 -54.48526 769 ft 2 kts 54°
2026-04-20 19:48 -25.59823 -54.48508 769 ft 5 kts 46°
2026-04-20 19:48 -25.59798 -54.48474 768 ft 6 kts 73°
2026-04-20 19:48 -25.59811 -54.48439 769 ft 5 kts 131°
2026-04-20 19:48 -25.59836 -54.48407 769 ft 6 kts 131°
2026-04-20 19:49 -25.59867 -54.48367 769 ft 7 kts 131°
2026-04-20 19:49 -25.59905 -54.48319 769 ft 9 kts 130°
2026-04-20 19:49 -25.59952 -54.48258 769 ft 11 kts 130°
2026-04-20 19:49 -25.60006 -54.48188 770 ft 13 kts 130°
2026-04-20 19:50 -25.60065 -54.48114 771 ft 13 kts 131°
2026-04-20 19:50 -25.60130 -54.48032 771 ft 15 kts 131°
2026-04-20 19:50 -25.60221 -54.47965 771 ft 16 kts 139°
2026-04-20 19:50 -25.60226 -54.47923 771 ft 2 kts 26°
2026-04-20 19:51 -25.60106 -54.48060 771 ft 62 kts 310°
2026-04-20 19:51 -25.59644 -54.48654 770 ft 138 kts 310°
2026-04-20 19:51 -25.58876 -54.49620 914 ft 189 kts 311°
2026-04-20 19:51 -25.57959 -54.50837 1459 ft 220 kts 311°
2026-04-20 19:52 -25.56969 -54.52143 2518 ft 220 kts 313°
2026-04-20 19:52 -25.55971 -54.53423 3540 ft 219 kts 314°
2026-04-20 19:52 -25.54967 -54.54691 4388 ft 219 kts 313°
2026-04-20 19:52 -25.53975 -54.55952 5248 ft 217 kts 312°
2026-04-20 19:53 -25.52866 -54.57129 5806 ft 229 kts 330°
2026-04-20 19:53 -25.51286 -54.57612 6208 ft 249 kts
2026-04-20 19:53 -25.49597 -54.57042 6577 ft 271 kts 32°
2026-04-20 19:53 -25.48360 -54.55429 7165 ft 281 kts 66°
2026-04-20 19:54 -25.47999 -54.53298 7881 ft 287 kts 83°
2026-04-20 19:54 -25.47426 -54.51195 8553 ft 285 kts 53°
2026-04-20 19:54 -25.45990 -54.49733 9348 ft 283 kts 33°
2026-04-20 19:54 -25.44404 -54.48394 9945 ft 290 kts 37°
2026-04-20 19:55 -25.42804 -54.46975 10416 ft 303 kts 38°
2026-04-20 19:55 -25.41103 -54.45462 10670 ft 323 kts 38°
2026-04-20 19:55 -25.39305 -54.43859 10897 ft 342 kts 38°
2026-04-20 19:55 -25.37419 -54.42177 11266 ft 354 kts 38°
2026-04-20 19:56 -25.36143 -54.41039 11636 ft 356 kts 38°
2026-04-20 19:56 -25.33691 -54.38550 12508 ft 363 kts 52°
2026-04-20 19:56 -25.32532 -54.36059 13187 ft 370 kts 72°
2026-04-20 19:56 -25.32210 -54.33219 13825 ft 378 kts 91°
2026-04-20 19:57 -25.32781 -54.30362 14423 ft 385 kts 112°
2026-04-20 19:57 -25.34021 -54.27717 15014 ft 391 kts 117°
2026-04-20 19:57 -25.35303 -54.25046 15580 ft 395 kts 117°
2026-04-20 19:57 -25.36589 -54.22387 16158 ft 399 kts 117°
2026-04-20 19:58 -25.37907 -54.19670 16704 ft 403 kts 117°
2026-04-20 19:58 -25.39242 -54.16920 17255 ft 407 kts 117°
2026-04-20 19:58 -25.40587 -54.14150 17787 ft 411 kts 117°
2026-04-20 19:58 -25.41947 -54.11348 18305 ft 415 kts 117°
2026-04-20 19:59 -25.43316 -54.08526 18756 ft 418 kts 117°
2026-04-20 19:59 -25.44700 -54.05671 19210 ft 422 kts 117°
2026-04-20 19:59 -25.46094 -54.02794 19654 ft 426 kts 117°
2026-04-20 19:59 -25.47497 -53.99896 20087 ft 429 kts 117°
2026-04-20 20:00 -25.48900 -53.96995 20527 ft 433 kts 117°
2026-04-20 20:00 -25.50324 -53.94050 20974 ft 436 kts 117°
2026-04-20 20:00 -25.51759 -53.91080 21403 ft 439 kts 117°
2026-04-20 20:00 -25.53206 -53.88082 21848 ft 443 kts 117°
2026-04-20 20:01 -25.54663 -53.85062 22261 ft 446 kts 117°
2026-04-20 20:01 -25.56132 -53.82018 22683 ft 449 kts 117°
2026-04-20 20:01 -25.57578 -53.78931 23094 ft 452 kts 112°
2026-04-20 20:01 -25.58439 -53.75591 23501 ft 452 kts 95°
2026-04-20 20:02 -25.58635 -53.72115 23823 ft 454 kts 90°
2026-04-20 20:02 -25.58727 -53.68611 24167 ft 456 kts 89°
2026-04-20 20:02 -25.58785 -53.65094 24552 ft 458 kts 89°
2026-04-20 20:02 -25.58824 -53.61560 24911 ft 460 kts 89°
2026-04-20 20:03 -25.58851 -53.58003 25294 ft 462 kts 89°
2026-04-20 20:03 -25.58872 -53.54435 25661 ft 464 kts 89°
2026-04-20 20:03 -25.58892 -53.50851 26006 ft 466 kts 89°
2026-04-20 20:03 -25.58910 -53.47299 26357 ft 468 kts 89°
2026-04-20 20:04 -25.58928 -53.43687 26672 ft 471 kts 89°
2026-04-20 20:04 -25.58945 -53.40052 27025 ft 473 kts 89°
2026-04-20 20:04 -25.58961 -53.36402 27339 ft 475 kts 89°
2026-04-20 20:04 -25.58976 -53.32730 27655 ft 477 kts 89°
2026-04-20 20:05 -25.58991 -53.29049 27972 ft 479 kts 89°
2026-04-20 20:05 -25.59004 -53.25344 28255 ft 482 kts 90°
2026-04-20 20:05 -25.59017 -53.21626 28547 ft 484 kts 90°
2026-04-20 20:05 -25.59029 -53.17887 28826 ft 487 kts 90°
2026-04-20 20:06 -25.59039 -53.14132 29111 ft 489 kts 90°
2026-04-20 20:06 -25.59049 -53.10352 29406 ft 491 kts 90°
2026-04-20 20:06 -25.59059 -53.06564 29676 ft 493 kts 90°
2026-04-20 20:06 -25.59066 -53.02762 29947 ft 495 kts 90°
2026-04-20 20:07 -25.59073 -52.98944 30187 ft 497 kts 90°
2026-04-20 20:07 -25.59079 -52.95101 30406 ft 499 kts 90°
2026-04-20 20:07 -25.59084 -52.91255 30618 ft 501 kts 90°
2026-04-20 20:07 -25.59088 -52.87389 30840 ft 503 kts 90°
2026-04-20 20:08 -25.59091 -52.83517 31067 ft 504 kts 90°
2026-04-20 20:08 -25.59093 -52.79626 31354 ft 504 kts 90°
2026-04-20 20:08 -25.59094 -52.75740 31656 ft 504 kts 90°
2026-04-20 20:08 -25.59094 -52.71855 31954 ft 504 kts 90°
2026-04-20 20:09 -25.59093 -52.67974 32259 ft 504 kts 90°
2026-04-20 20:09 -25.59091 -52.64139 32554 ft 504 kts 90°
2026-04-20 20:09 -25.59088 -52.60258 32857 ft 504 kts 90°
2026-04-20 20:09 -25.59084 -52.56368 33152 ft 504 kts 90°
2026-04-20 20:10 -25.59079 -52.52488 33448 ft 504 kts 90°
2026-04-20 20:10 -25.59072 -52.48601 33722 ft 505 kts 90°
2026-04-20 20:10 -25.59065 -52.44703 34011 ft 505 kts 90°
2026-04-20 20:10 -25.59057 -52.40814 34253 ft 506 kts 91°
2026-04-20 20:11 -25.59047 -52.36908 34492 ft 506 kts 91°
2026-04-20 20:11 -25.59041 -52.34327 34655 ft 506 kts 91°
2026-04-20 20:11 -25.59030 -52.30424 34883 ft 507 kts 91°
2026-04-20 20:11 -25.59018 -52.26508 35016 ft 508 kts 91°
2026-04-20 20:12 -25.59004 -52.22598 35004 ft 508 kts 91°
2026-04-20 20:12 -25.58975 -52.14784 35013 ft 507 kts 91°
2026-04-20 20:13 -25.58923 -52.03070 35015 ft 507 kts 91°
2026-04-20 20:13 -25.58883 -51.95254 35020 ft 507 kts 91°
2026-04-20 20:14 -25.58839 -51.87444 35024 ft 507 kts 91°
2026-04-20 20:14 -25.58791 -51.79629 35031 ft 507 kts 91°
2026-04-20 20:15 -25.58739 -51.71870 35028 ft 507 kts 91°
2026-04-20 20:15 -25.58683 -51.64061 35040 ft 507 kts 91°
2026-04-20 20:16 -25.58622 -51.56244 35045 ft 506 kts 91°
2026-04-20 20:16 -25.58559 -51.48442 35050 ft 506 kts 91°
2026-04-20 20:17 -25.58492 -51.40654 35047 ft 505 kts 91°
2026-04-20 20:17 -25.58419 -51.32864 35052 ft 505 kts 91°
2026-04-20 20:18 -25.58344 -51.25081 35059 ft 505 kts 91°
2026-04-20 20:18 -25.58266 -51.17366 35062 ft 504 kts 91°
2026-04-20 20:19 -25.58184 -51.09592 35060 ft 504 kts 91°
2026-04-20 20:19 -25.58096 -51.01816 35057 ft 503 kts 91°
2026-04-20 20:20 -25.58002 -50.94063 35058 ft 504 kts 91°
2026-04-20 20:20 -25.57903 -50.86308 35046 ft 503 kts 91°
2026-04-20 20:21 -25.57802 -50.78606 35061 ft 503 kts 91°
2026-04-20 20:21 -25.57696 -50.70860 35060 ft 502 kts 91°
2026-04-20 20:22 -25.57585 -50.63115 35057 ft 502 kts 91°
2026-04-20 20:22 -25.57471 -50.55376 35057 ft 502 kts 91°
2026-04-20 20:23 -25.57352 -50.47643 35059 ft 502 kts 91°
2026-04-20 20:23 -25.57230 -50.39900 35059 ft 502 kts 91°
2026-04-20 20:24 -25.57103 -50.32153 35059 ft 503 kts 91°
2026-04-20 20:24 -25.56972 -50.24418 35063 ft 503 kts 91°
2026-04-20 20:25 -25.56838 -50.16672 35062 ft 503 kts 91°
2026-04-20 20:25 -25.56703 -50.08964 35063 ft 503 kts 91°
2026-04-20 20:26 -25.56448 -50.01214 35064 ft 504 kts 90°
2026-04-20 20:26 -25.56137 -49.93465 35065 ft 504 kts 90°
2026-04-20 20:27 -25.55810 -49.85711 35068 ft 504 kts 90°
2026-04-20 20:27 -25.55481 -49.77966 35069 ft 503 kts 90°
2026-04-20 20:28 -25.55149 -49.70223 35072 ft 503 kts 90°
2026-04-20 20:28 -25.54811 -49.62484 35075 ft 503 kts 90°
2026-04-20 20:29 -25.54467 -49.54733 35088 ft 503 kts 90°
2026-04-20 20:29 -25.54122 -49.47021 35109 ft 503 kts 90°
2026-04-20 20:30 -25.53818 -49.39328 35125 ft 502 kts 91°
2026-04-20 20:30 -25.53607 -49.31586 35147 ft 503 kts 91°
2026-04-20 20:31 -25.53399 -49.23859 35157 ft 502 kts 91°
2026-04-20 20:31 -25.53081 -49.16134 35144 ft 504 kts 83°
2026-04-20 20:32 -25.51794 -49.08490 35155 ft 505 kts 82°
2026-04-20 20:32 -25.50497 -49.00854 35144 ft 505 kts 81°
2026-04-20 20:33 -25.49192 -48.93217 35125 ft 505 kts 81°
2026-04-20 20:33 -25.47884 -48.85587 35114 ft 505 kts 81°
2026-04-20 20:34 -25.46566 -48.77959 35095 ft 504 kts 81°
2026-04-20 20:34 -25.45257 -48.70392 35088 ft 503 kts 81°
2026-04-20 20:35 -25.43938 -48.62777 35094 ft 503 kts 81°
2026-04-20 20:35 -25.42616 -48.55175 35089 ft 502 kts 81°
2026-04-20 20:36 -25.41295 -48.47598 35079 ft 501 kts 81°
2026-04-20 20:36 -25.39968 -48.40030 35086 ft 501 kts 81°
2026-04-20 20:37 -25.38639 -48.32473 35084 ft 500 kts 81°
2026-04-20 20:37 -25.37309 -48.24925 35083 ft 499 kts 81°
2026-04-20 20:38 -25.35978 -48.17387 35081 ft 499 kts 81°
2026-04-20 20:38 -25.34645 -48.09867 35082 ft 498 kts 81°
2026-04-20 20:39 -25.33319 -48.02407 35080 ft 498 kts 81°
2026-04-20 20:39 -25.31984 -47.94903 35083 ft 497 kts 81°
2026-04-20 20:40 -25.30644 -47.87399 35077 ft 497 kts 81°
2026-04-20 20:40 -25.29300 -47.79904 35074 ft 497 kts 81°
2026-04-20 20:41 -25.27955 -47.72423 35069 ft 496 kts 81°
2026-04-20 20:41 -25.26607 -47.64948 35078 ft 496 kts 81°
2026-04-20 20:42 -25.25255 -47.57480 35079 ft 495 kts 81°
2026-04-20 20:42 -25.23911 -47.50072 35071 ft 494 kts 81°
2026-04-20 20:43 -25.22970 -47.46424 35064 ft 496 kts 67°
2026-04-20 20:43 -25.21213 -47.43097 35085 ft 496 kts 53°
2026-04-20 20:43 -25.16903 -47.37171 35073 ft 499 kts 51°
2026-04-20 20:44 -25.12484 -47.31260 35077 ft 499 kts 51°
2026-04-20 20:44 -25.08041 -47.25376 35078 ft 498 kts 51°
2026-04-20 20:45 -25.03602 -47.19507 35071 ft 498 kts 51°
2026-04-20 20:45 -24.99156 -47.13638 35075 ft 498 kts 51°
2026-04-20 20:46 -24.94715 -47.07780 35005 ft 499 kts 51°
2026-04-20 20:46 -24.92500 -47.04863 34354 ft 497 kts 51°
2026-04-20 20:46 -24.90261 -47.01916 33387 ft 502 kts 51°
2026-04-20 20:47 -24.88035 -46.98987 32773 ft 497 kts 50°
2026-04-20 20:47 -24.85805 -46.96057 31728 ft 502 kts 50°
2026-04-20 20:47 -24.83575 -46.93125 31117 ft 497 kts 50°
2026-04-20 20:47 -24.81341 -46.90191 30060 ft 503 kts 49°
2026-04-20 20:48 -24.79109 -46.87259 29285 ft 498 kts 49°
2026-04-20 20:48 -24.76891 -46.84349 28011 ft 505 kts 50°
2026-04-20 20:48 -24.74643 -46.81402 27171 ft 501 kts 50°
2026-04-20 20:48 -24.72388 -46.78448 26070 ft 505 kts 50°
2026-04-20 20:49 -24.70135 -46.75498 25342 ft 501 kts 50°
2026-04-20 20:49 -24.67906 -46.72581 24634 ft 497 kts 50°
2026-04-20 20:49 -24.65694 -46.69687 24034 ft 491 kts 50°
2026-04-20 20:49 -24.63429 -46.66906 23226 ft 488 kts 42°
2026-04-20 20:50 -24.60677 -46.64767 22570 ft 482 kts 28°
2026-04-20 20:50 -24.57611 -46.63382 22026 ft 474 kts 15°
2026-04-20 20:50 -24.54382 -46.62828 21482 ft 467 kts
2026-04-20 20:50 -24.51139 -46.62682 20978 ft 467 kts
2026-04-20 20:51 -24.47888 -46.62612 20469 ft 467 kts
2026-04-20 20:51 -24.44637 -46.62583 19984 ft 466 kts
2026-04-20 20:51 -24.41397 -46.62573 19491 ft 464 kts
2026-04-20 20:51 -24.38219 -46.62568 18957 ft 462 kts
2026-04-20 20:52 -24.35010 -46.62567 18489 ft 461 kts
2026-04-20 20:52 -24.31803 -46.62568 17971 ft 459 kts
2026-04-20 20:52 -24.28620 -46.62569 17445 ft 456 kts
2026-04-20 20:52 -24.25475 -46.62571 16962 ft 449 kts
2026-04-20 20:53 -24.22378 -46.62573 16433 ft 444 kts
2026-04-20 20:53 -24.19301 -46.62575 15938 ft 439 kts
2026-04-20 20:53 -24.16264 -46.62577 15491 ft 433 kts
2026-04-20 20:53 -24.13267 -46.62579 15030 ft 428 kts
2026-04-20 20:54 -24.10293 -46.62580 14575 ft 424 kts
2026-04-20 20:54 -24.07359 -46.62582 14123 ft 420 kts
2026-04-20 20:54 -24.04453 -46.62584 13650 ft 416 kts
2026-04-20 20:54 -24.01566 -46.62586 13166 ft 412 kts
2026-04-20 20:55 -23.98718 -46.62589 12699 ft 406 kts
2026-04-20 20:55 -23.95929 -46.62590 12317 ft 401 kts
2026-04-20 20:55 -23.93152 -46.62592 11904 ft 397 kts
2026-04-20 20:55 -23.90405 -46.62594 11486 ft 393 kts
2026-04-20 20:56 -23.87676 -46.62597 11075 ft 389 kts 360°
2026-04-20 20:56 -23.85047 -46.63070 10717 ft 378 kts 339°
2026-04-20 20:56 -23.82850 -46.64444 10281 ft 363 kts 323°
2026-04-20 20:56 -23.82152 -46.64967 10123 ft 359 kts 326°
2026-04-20 20:57 -23.80273 -46.66304 9665 ft 350 kts 326°
2026-04-20 20:57 -23.78326 -46.67672 9203 ft 341 kts 326°
2026-04-20 20:57 -23.76359 -46.69045 8754 ft 330 kts 326°
2026-04-20 20:57 -23.74450 -46.70373 8363 ft 320 kts 327°
2026-04-20 20:58 -23.72597 -46.71659 7983 ft 310 kts 326°
2026-04-20 20:58 -23.70809 -46.72900 7640 ft 300 kts 327°
2026-04-20 20:58 -23.69078 -46.74100 7368 ft 288 kts 327°
2026-04-20 20:58 -23.67454 -46.75227 7334 ft 267 kts 326°
2026-04-20 20:59 -23.65942 -46.76274 7302 ft 250 kts 326°
2026-04-20 20:59 -23.64509 -46.77265 7307 ft 235 kts 326°
2026-04-20 20:59 -23.63162 -46.78196 7247 ft 227 kts 326°
2026-04-20 20:59 -23.61837 -46.79114 7108 ft 223 kts 326°
2026-04-20 21:00 -23.60980 -46.79708 6987 ft 219 kts 326°
2026-04-20 21:00 -23.59714 -46.80586 6788 ft 212 kts 326°
2026-04-20 21:00 -23.58457 -46.81400 6574 ft 210 kts 338°
2026-04-20 21:00 -23.57053 -46.81572 6325 ft 200 kts 12°
2026-04-20 21:01 -23.55836 -46.80945 6105 ft 192 kts 44°
2026-04-20 21:01 -23.54989 -46.79842 5941 ft 189 kts 56°
2026-04-20 21:01 -23.54231 -46.78666 5788 ft 189 kts 58°
2026-04-20 21:01 -23.53493 -46.77485 5576 ft 188 kts 59°
2026-04-20 21:02 -23.52772 -46.76306 5348 ft 187 kts 60°
2026-04-20 21:02 -23.52159 -46.75113 5110 ft 174 kts 79°
2026-04-20 21:02 -23.52226 -46.73883 4846 ft 157 kts 117°
2026-04-20 21:02 -23.52839 -46.72944 4699 ft 149 kts 133°
2026-04-20 21:03 -23.53574 -46.72157 4518 ft 147 kts 139°
2026-04-20 21:03 -23.54369 -46.71473 4308 ft 144 kts 144°
2026-04-20 21:03 -23.55191 -46.70853 4151 ft 143 kts 146°
2026-04-20 21:03 -23.56018 -46.70262 3994 ft 142 kts 147°
2026-04-20 21:04 -23.56846 -46.69685 3978 ft 142 kts 148°
2026-04-20 21:04 -23.57675 -46.69097 3764 ft 142 kts 147°
2026-04-20 21:04 -23.58486 -46.68487 3381 ft 141 kts 146°
2026-04-20 21:04 -23.59290 -46.67916 3169 ft 140 kts 152°
2026-04-20 21:05 -23.60151 -46.67369 2999 ft 142 kts 153°
2026-04-20 21:05 -23.60985 -46.66785 2829 ft 143 kts 150°
2026-04-20 21:05 -23.61825 -46.66222 2672 ft 146 kts 149°
2026-04-20 21:05 -23.62675 -46.65654 2610 ft 130 kts 146°
2026-04-20 21:06 -23.63402 -46.65033 2822 ft 149 kts 138°
2026-04-20 21:06 -23.64111 -46.64020 3221 ft 185 kts 126°
2026-04-20 21:06 -23.64783 -46.62745 4075 ft 200 kts 120°
2026-04-20 21:06 -23.65482 -46.61503 5346 ft 179 kts 128°
2026-04-20 21:07 -23.66268 -46.60415 6061 ft 202 kts 130°
2026-04-20 21:07 -23.67249 -46.59133 6579 ft 226 kts 133°
2026-04-20 21:07 -23.68222 -46.57941 8082 ft 188 kts 135°
2026-04-20 21:07 -23.69107 -46.56934 9138 ft 191 kts 137°
2026-04-20 21:08 -23.70151 -46.55909 9507 ft 218 kts 142°
2026-04-20 21:08 -23.71393 -46.54915 10320 ft 218 kts 148°
2026-04-20 21:08 -23.72672 -46.54109 11200 ft 221 kts 153°
2026-04-20 21:08 -23.74155 -46.53253 11359 ft 252 kts 152°
2026-04-20 21:09 -23.75770 -46.52321 11891 ft 272 kts 153°
2026-04-20 21:09 -23.77523 -46.51442 12432 ft 291 kts 162°
2026-04-20 21:09 -23.79500 -46.50801 12761 ft 303 kts 162°
2026-04-20 21:09 -23.81584 -46.50241 12967 ft 316 kts 173°
2026-04-20 21:10 -23.83776 -46.50222 13788 ft 313 kts 180°
2026-04-20 21:10 -23.86070 -46.50258 13232 ft 353 kts 177°
2026-04-20 21:10 -23.88683 -46.50101 12628 ft 390 kts 173°
2026-04-20 21:10 -23.91150 -46.49727 14957 ft 323 kts 168°
2026-04-20 21:11 -23.93426 -46.49251 14725 ft 361 kts 165°
2026-04-20 21:11 -23.95741 -46.47959 14801 ft 372 kts 133°
2026-04-20 21:11 -23.97516 -46.45841 14832 ft 393 kts 133°
2026-04-20 21:11 -23.99263 -46.43703 16538 ft 288 kts 133°
2026-04-20 21:12 -24.00048 -46.42640 21280 ft 131 kts 131°
2026-04-20 21:12 -24.00498 -46.41965 21930 ft 114 kts 131°
2026-04-20 21:12 -24.01281 -46.40884 17898 ft 287 kts 132°
2026-04-20 21:12 -24.02950 -46.38729 16280 ft 379 kts 132°
2026-04-20 21:13 -24.03218 -46.38382 16817 ft 348 kts 132°